Location: Moscow
(55.7500°N, 37.5830°E)
Time: 03:22:18
(UTC+03:00)

FENGYUN 1C DEB - Visible Passes

Search period start: 31 May 2023 00:00
Search period end: 10 June 2023 00:00
Orbit: 623 x 687 km, 100.0° (Epoch: 16 April)

Date Brightness Start Highest point End Pass type
(mag) Time Alt. Az. Time Alt. Az. Time Alt. Az.
31 May ? 22:15:27 10° S 22:19:38 66° WSW 22:23:51 10° NNW visible
31 May ? 23:55:22 10° W 23:56:10 10° W 23:56:58 10° WNW visible
01 Jun ? 22:29:38 10° S 22:33:44 51° WSW 22:37:52 10° NNW visible
02 Jun ? 22:43:53 10° S 22:47:49 39° W 22:51:49 10° NNW visible
03 Jun ? 22:58:10 10° SSW 23:01:54 31° W 23:05:41 10° NW visible
04 Jun ? 23:12:32 10° SSW 23:15:58 24° W 23:19:28 10° NW visible
05 Jun ? 23:27:00 10° SW 23:30:02 19° W 23:33:06 10° NW visible
06 Jun ? 22:03:35 10° SSE 22:07:48 87° ENE 22:12:04 10° NNW visible
06 Jun ? 23:41:37 10° SW 23:44:05 15° W 23:46:34 10° NW visible
07 Jun ? 22:17:28 10° SSE 22:21:40 74° WSW 22:25:56 10° NNW visible
07 Jun ? 23:56:33 10° WSW 23:58:07 12° W 23:59:41 10° WNW visible
08 Jun ? 22:31:23 10° S 22:35:31 57° WSW 22:39:44 10° NNW visible
09 Jun ? 22:45:21 10° S 22:49:22 44° WSW 22:53:27 10° NNW visible
